Location: Arrodets-la-Barthe
(43.0306°N, 0.2829°E)
Time: 13:19:20
(UTC+00:00)

In-Cosmos 22 Rocket - Pass Details

Date: 24 October 2021
Orbit: 790 x 888 km, 81.2° (Epoch: 07 December)

Event Time Altitude Azimuth Distance (km) Brightness Sun altitude
Rises 18:32:13 0° 352° (N) 3,304 7.4 -17.1°
Reaches altitude 10° 18:34:37 10° 355° (N) 2,366 6.6 -17.6°
Maximum altitude 18:39:55 69° 79° (ENE) 847 3.9 -18.5°
Drops below altitude 10° 18:45:12 10° 162° (SSE) 2,358 6.3 -19.5°
Sets 18:47:36 0° 165° (SSE) 3,291 7.1 -19.9°
